QTR1006 OTHH-OMDB

Flight info

Callsign QTR1006
Flight time 0h 58m
Altitude 21000
Route ALSEM L305 ITBUL M677 VUTEB
Aircraft A359/H-SDE2E3GHIJ3J4J5LM1ORWXY/LB1D1

Departure

Time 2026-05-07 21:14
Airport Hamad International Airport (OTHH)

Arrival

Time 2026-05-07 22:13
Airport Dubai International Airport (OMDB)
Time Latitude Longitude Altitude Speed Heading
2026-05-07 20:41 25.27108 51.61474 36 ft 0 kts 338°
2026-05-07 21:02 25.27110 51.61473 35 ft 4 kts 338°
2026-05-07 21:02 25.27094 51.61480 36 ft 4 kts 338°
2026-05-07 21:03 25.27069 51.61491 36 ft 4 kts 338°
2026-05-07 21:03 25.27049 51.61500 36 ft 4 kts 341°
2026-05-07 21:03 25.27024 51.61504 36 ft 4 kts 25°
2026-05-07 21:03 25.27010 51.61486 36 ft 4 kts 68°
2026-05-07 21:04 25.27000 51.61460 35 ft 2 kts 68°
2026-05-07 21:04 25.27005 51.61475 36 ft 4 kts 68°
2026-05-07 21:04 25.27006 51.61477 36 ft 0 kts 68°
2026-05-07 21:08 25.27006 51.61479 36 ft 3 kts 68°
2026-05-07 21:08 25.27031 51.61542 36 ft 13 kts 66°
2026-05-07 21:08 25.27066 51.61641 36 ft 15 kts 76°
2026-05-07 21:09 25.27008 51.61723 36 ft 16 kts 155°
2026-05-07 21:09 25.26900 51.61773 36 ft 18 kts 157°
2026-05-07 21:09 25.26773 51.61832 35 ft 21 kts 157°
2026-05-07 21:09 25.26637 51.61887 36 ft 22 kts 158°
2026-05-07 21:10 25.26486 51.61954 36 ft 24 kts 158°
2026-05-07 21:10 25.26320 51.62028 36 ft 27 kts 158°
2026-05-07 21:10 25.26141 51.62106 36 ft 29 kts 158°
2026-05-07 21:10 25.25961 51.62185 36 ft 26 kts 158°
2026-05-07 21:11 25.25807 51.62253 36 ft 19 kts 158°
2026-05-07 21:11 25.25682 51.62308 36 ft 19 kts 158°
2026-05-07 21:11 25.25481 51.62441 35 ft 15 kts 95°
2026-05-07 21:12 25.25515 51.62557 34 ft 18 kts 64°
2026-05-07 21:12 25.25534 51.62602 33 ft 2 kts 63°
2026-05-07 21:12 25.25550 51.62635 33 ft 9 kts 59°
2026-05-07 21:12 25.25600 51.62652 33 ft 8 kts 346°
2026-05-07 21:13 25.25613 51.62647 33 ft 0 kts 340°
2026-05-07 21:13 25.25630 51.62640 33 ft 19 kts 339°
2026-05-07 21:13 25.26023 51.62467 33 ft 99 kts 338°
2026-05-07 21:14 25.26877 51.62091 35 ft 163 kts 338°
2026-05-07 21:14 25.27956 51.61643 768 ft 166 kts 337°
2026-05-07 21:14 25.29054 51.61199 1577 ft 170 kts 339°
2026-05-07 21:14 25.30148 51.60751 2296 ft 170 kts 339°
2026-05-07 21:15 25.31311 51.60220 2644 ft 193 kts 337°
2026-05-07 21:15 25.32598 51.59617 3105 ft 208 kts 337°
2026-05-07 21:15 25.34019 51.59189 3608 ft 221 kts
2026-05-07 21:15 25.35574 51.59610 3921 ft 239 kts 20°
2026-05-07 21:16 25.37132 51.60253 3992 ft 243 kts 19°
2026-05-07 21:16 25.38742 51.60845 3991 ft 245 kts 15°
2026-05-07 21:16 25.40374 51.61372 3983 ft 244 kts 14°
2026-05-07 21:16 25.42007 51.61850 3989 ft 242 kts 13°
2026-05-07 21:17 25.43637 51.62310 3983 ft 242 kts 14°
2026-05-07 21:17 25.45162 51.63118 3982 ft 246 kts 37°
2026-05-07 21:17 25.46161 51.64646 3986 ft 254 kts 68°
2026-05-07 21:17 25.46305 51.66653 3994 ft 272 kts 97°
2026-05-07 21:18 25.45922 51.68727 3986 ft 277 kts 102°
2026-05-07 21:18 25.45472 51.70768 3981 ft 276 kts 101°
2026-05-07 21:18 25.45025 51.72846 3942 ft 278 kts 101°
2026-05-07 21:18 25.44591 51.74928 3856 ft 278 kts 101°
2026-05-07 21:19 25.44165 51.77012 3839 ft 277 kts 101°
2026-05-07 21:19 25.43742 51.79098 3838 ft 278 kts 101°
2026-05-07 21:19 25.43321 51.81184 3839 ft 279 kts 99°
2026-05-07 21:19 25.42900 51.83278 3840 ft 280 kts 101°
2026-05-07 21:20 25.42477 51.85379 3838 ft 280 kts 101°
2026-05-07 21:20 25.42057 51.87479 3837 ft 280 kts 100°
2026-05-07 21:20 25.41644 51.89548 3965 ft 280 kts 100°
2026-05-07 21:20 25.41214 51.91667 4582 ft 284 kts 101°
2026-05-07 21:21 25.40786 51.93789 5514 ft 281 kts 101°
2026-05-07 21:21 25.40363 51.95890 6441 ft 279 kts 101°
2026-05-07 21:21 25.39938 51.97987 7271 ft 280 kts 102°
2026-05-07 21:21 25.39513 52.00092 8145 ft 281 kts 102°
2026-05-07 21:22 25.39085 52.02209 9055 ft 283 kts 103°
2026-05-07 21:22 25.38654 52.04339 9935 ft 285 kts 104°
2026-05-07 21:22 25.38213 52.06503 10496 ft 302 kts 104°
2026-05-07 21:22 25.37738 52.08846 10856 ft 323 kts 103°
2026-05-07 21:23 25.37232 52.11341 11266 ft 340 kts 103°
2026-05-07 21:23 25.36710 52.13919 11924 ft 347 kts 103°
2026-05-07 21:23 25.36178 52.16541 12706 ft 351 kts 103°
2026-05-07 21:23 25.35685 52.19210 13456 ft 356 kts 98°
2026-05-07 21:24 25.35676 52.21959 14113 ft 362 kts 83°
2026-05-07 21:24 25.36131 52.24717 14807 ft 367 kts 79°
2026-05-07 21:24 25.36669 52.27494 15456 ft 372 kts 79°
2026-05-07 21:24 25.37216 52.30303 16087 ft 377 kts 79°
2026-05-07 21:25 25.37757 52.33120 16746 ft 381 kts 80°
2026-05-07 21:25 25.38306 52.36004 17442 ft 385 kts 80°
2026-05-07 21:25 25.38857 52.38916 18141 ft 389 kts 81°
2026-05-07 21:25 25.39412 52.41859 18735 ft 393 kts 81°
2026-05-07 21:26 25.39972 52.44834 19324 ft 398 kts 81°
2026-05-07 21:26 25.40538 52.47852 19915 ft 403 kts 80°
2026-05-07 21:26 25.41109 52.50897 20471 ft 406 kts 80°
2026-05-07 21:26 25.41684 52.53966 20752 ft 408 kts 80°
2026-05-07 21:27 25.42258 52.57031 20824 ft 407 kts 80°
2026-05-07 21:27 25.42823 52.60056 20822 ft 407 kts 80°
2026-05-07 21:27 25.43395 52.63121 20821 ft 408 kts 80°
2026-05-07 21:27 25.43968 52.66194 20821 ft 408 kts 80°
2026-05-07 21:28 25.44540 52.69269 20815 ft 408 kts 80°
2026-05-07 21:28 25.45111 52.72345 20815 ft 408 kts 80°
2026-05-07 21:28 25.45686 52.75421 20815 ft 408 kts 80°
2026-05-07 21:28 25.46259 52.78495 20814 ft 408 kts 80°
2026-05-07 21:29 25.46828 52.81564 20812 ft 408 kts 80°
2026-05-07 21:29 25.47396 52.84636 20812 ft 407 kts 80°
2026-05-07 21:29 25.48025 52.87656 20813 ft 408 kts 77°
2026-05-07 21:29 25.48517 52.89704 20812 ft 408 kts 76°
2026-05-07 21:30 25.49549 52.93707 20811 ft 408 kts 75°
2026-05-07 21:30 25.50340 52.96722 20810 ft 408 kts 75°
2026-05-07 21:30 25.50870 52.98765 20810 ft 408 kts 76°
2026-05-07 21:30 25.51889 53.02773 20809 ft 408 kts 76°
2026-05-07 21:31 25.52645 53.05799 20805 ft 408 kts 76°
2026-05-07 21:31 25.53154 53.07851 20804 ft 408 kts 76°
2026-05-07 21:31 25.53892 53.10844 20804 ft 408 kts 76°
2026-05-07 21:31 25.54635 53.13872 20804 ft 408 kts 76°
2026-05-07 21:32 25.55377 53.16911 20802 ft 409 kts 76°
2026-05-07 21:32 25.56120 53.19952 20804 ft 409 kts 76°
2026-05-07 21:32 25.56860 53.22985 20804 ft 408 kts 76°
2026-05-07 21:32 25.57601 53.26024 20803 ft 408 kts 76°
2026-05-07 21:33 25.58343 53.29077 20806 ft 417 kts 76°
2026-05-07 21:33 25.59114 53.32259 20805 ft 437 kts 76°
2026-05-07 21:33 25.59912 53.35555 20799 ft 447 kts 76°
2026-05-07 21:33 25.60712 53.38850 20799 ft 450 kts 76°
2026-05-07 21:34 25.61527 53.42201 20798 ft 451 kts 76°
2026-05-07 21:34 25.62346 53.45553 20796 ft 451 kts 76°
2026-05-07 21:34 25.63161 53.48906 20796 ft 451 kts 76°
2026-05-07 21:34 25.63974 53.52260 20796 ft 451 kts 76°
2026-05-07 21:35 25.64785 53.55622 20793 ft 451 kts 76°
2026-05-07 21:35 25.65594 53.58975 20793 ft 451 kts 76°
2026-05-07 21:35 25.66403 53.62331 20793 ft 451 kts 76°
2026-05-07 21:35 25.67202 53.65646 20793 ft 451 kts 76°
2026-05-07 21:36 25.68010 53.68999 20797 ft 451 kts 76°
2026-05-07 21:36 25.68817 53.72359 20796 ft 451 kts 76°
2026-05-07 21:36 25.69626 53.75718 20787 ft 451 kts 76°
2026-05-07 21:36 25.70432 53.79080 20790 ft 451 kts 76°
2026-05-07 21:37 25.71235 53.82439 20789 ft 451 kts 76°
2026-05-07 21:37 25.72038 53.85805 20788 ft 451 kts 77°
2026-05-07 21:37 25.72841 53.89168 20788 ft 451 kts 76°
2026-05-07 21:37 25.73642 53.92531 20788 ft 452 kts 76°
2026-05-07 21:38 25.74432 53.95853 20787 ft 452 kts 76°
2026-05-07 21:38 25.75233 53.99217 20785 ft 452 kts 76°
2026-05-07 21:38 25.76047 54.02584 20785 ft 452 kts 75°
2026-05-07 21:38 25.77008 54.05914 20785 ft 453 kts 72°
2026-05-07 21:39 25.78080 54.09204 20781 ft 454 kts 71°
2026-05-07 21:39 25.79188 54.12481 20781 ft 451 kts 70°
2026-05-07 21:39 25.80269 54.15676 20676 ft 434 kts 71°
2026-05-07 21:39 25.81105 54.18839 20438 ft 424 kts 82°
2026-05-07 21:40 25.81053 54.23114 20126 ft 418 kts 102°
2026-05-07 21:40 25.80645 54.25199 19965 ft 416 kts 105°
2026-05-07 21:40 25.79837 54.28273 19723 ft 414 kts 110°
2026-05-07 21:40 25.78902 54.31282 19499 ft 411 kts 112°
2026-05-07 21:41 25.77923 54.34252 19278 ft 408 kts 112°
2026-05-07 21:41 25.76947 54.37186 18925 ft 402 kts 112°
2026-05-07 21:41 25.75999 54.40081 18418 ft 398 kts 112°
2026-05-07 21:41 25.75073 54.42957 17837 ft 394 kts 110°
2026-05-07 21:42 25.74171 54.45808 17257 ft 390 kts 110°
2026-05-07 21:42 25.73285 54.48636 16702 ft 385 kts 110°
2026-05-07 21:42 25.72412 54.51431 16169 ft 381 kts 110°
2026-05-07 21:42 25.71549 54.54197 15631 ft 379 kts 110°
2026-05-07 21:43 25.70690 54.56947 15098 ft 376 kts 110°
2026-05-07 21:43 25.69847 54.59642 14563 ft 373 kts 109°
2026-05-07 21:43 25.68997 54.62349 14027 ft 370 kts 110°
2026-05-07 21:43 25.68140 54.65009 13720 ft 360 kts 110°
2026-05-07 21:44 25.67314 54.67564 13595 ft 344 kts 110°
2026-05-07 21:44 25.66527 54.70003 13466 ft 329 kts 110°
2026-05-07 21:44 25.65776 54.72336 13326 ft 314 kts 110°
2026-05-07 21:44 25.65057 54.74567 13199 ft 301 kts 110°
2026-05-07 21:45 25.64366 54.76708 13056 ft 289 kts 109°
2026-05-07 21:45 25.63714 54.78731 12939 ft 277 kts 109°
2026-05-07 21:45 25.63076 54.80713 12771 ft 270 kts 109°
2026-05-07 21:45 25.62449 54.82659 12523 ft 267 kts 109°
2026-05-07 21:46 25.61827 54.84586 12245 ft 265 kts 109°
2026-05-07 21:46 25.61210 54.86499 11974 ft 262 kts 109°
2026-05-07 21:46 25.60539 54.88394 11882 ft 271 kts 113°
2026-05-07 21:46 25.59768 54.90328 11815 ft 277 kts 114°
2026-05-07 21:47 25.58985 54.92285 11613 ft 278 kts 114°
2026-05-07 21:47 25.58205 54.94250 11443 ft 278 kts 114°
2026-05-07 21:47 25.57442 54.96186 11288 ft 278 kts 114°
2026-05-07 21:47 25.56673 54.98144 11161 ft 277 kts 113°
2026-05-07 21:48 25.55906 55.00102 11016 ft 276 kts 113°
2026-05-07 21:48 25.55141 55.02061 10883 ft 277 kts 113°
2026-05-07 21:48 25.54307 55.03980 10730 ft 276 kts 118°
2026-05-07 21:48 25.53367 55.05837 10600 ft 276 kts 120°
2026-05-07 21:49 25.52410 55.07677 10455 ft 276 kts 120°
2026-05-07 21:49 25.51450 55.09521 10308 ft 276 kts 120°
2026-05-07 21:49 25.50497 55.11355 10182 ft 276 kts 120°
2026-05-07 21:49 25.49533 55.13211 10037 ft 276 kts 120°
2026-05-07 21:50 25.48588 55.15029 9908 ft 275 kts 120°
2026-05-07 21:50 25.47648 55.16837 9760 ft 275 kts 120°
2026-05-07 21:50 25.46697 55.18668 9618 ft 274 kts 120°
2026-05-07 21:50 25.45620 55.20405 9473 ft 275 kts 130°
2026-05-07 21:51 25.44361 55.22010 9335 ft 276 kts 133°
2026-05-07 21:51 25.43069 55.23590 9198 ft 276 kts 133°
2026-05-07 21:51 25.41778 55.25161 9041 ft 276 kts 133°
2026-05-07 21:51 25.40492 55.26732 8931 ft 276 kts 133°
2026-05-07 21:52 25.39188 55.28327 8788 ft 276 kts 133°
2026-05-07 21:52 25.37910 55.29894 8657 ft 272 kts 132°
2026-05-07 21:52 25.36673 55.31414 8525 ft 260 kts 133°
2026-05-07 21:52 25.35378 55.32750 8380 ft 250 kts 147°
2026-05-07 21:53 25.33890 55.33727 8268 ft 248 kts 152°
2026-05-07 21:53 25.32339 55.34632 8138 ft 248 kts 153°
2026-05-07 21:53 25.30831 55.35509 8020 ft 248 kts 153°
2026-05-07 21:53 25.29302 55.36398 7896 ft 248 kts 153°
2026-05-07 21:54 25.27785 55.37284 7768 ft 247 kts 153°
2026-05-07 21:54 25.26267 55.38169 7648 ft 246 kts 153°
2026-05-07 21:54 25.24752 55.39054 7525 ft 247 kts 153°
2026-05-07 21:54 25.23230 55.39943 7394 ft 247 kts 153°
2026-05-07 21:55 25.21714 55.40829 7278 ft 247 kts 153°
2026-05-07 21:55 25.20195 55.41716 7150 ft 247 kts 154°
2026-05-07 21:55 25.18677 55.42598 7028 ft 247 kts 154°
2026-05-07 21:55 25.17182 55.43477 6929 ft 246 kts 154°
2026-05-07 21:56 25.15671 55.44361 6833 ft 246 kts 154°
2026-05-07 21:56 25.14162 55.45242 6736 ft 245 kts 153°
2026-05-07 21:56 25.12655 55.46123 6651 ft 245 kts 153°
2026-05-07 21:56 25.11242 55.47162 6568 ft 246 kts 136°
2026-05-07 21:57 25.10201 55.48661 6466 ft 247 kts 123°
2026-05-07 21:57 25.09303 55.50276 6378 ft 247 kts 122°
2026-05-07 21:57 25.08420 55.51899 6302 ft 246 kts 122°
2026-05-07 21:57 25.07536 55.53516 6199 ft 247 kts 122°
2026-05-07 21:58 25.06643 55.55139 6104 ft 248 kts 122°
2026-05-07 21:58 25.05740 55.56756 6013 ft 247 kts 123°
2026-05-07 21:58 25.04829 55.58381 5915 ft 247 kts 123°
2026-05-07 21:58 25.03929 55.59984 5820 ft 247 kts 123°
2026-05-07 21:59 25.03031 55.61603 5733 ft 247 kts 122°
2026-05-07 21:59 25.02137 55.63224 5630 ft 248 kts 122°
2026-05-07 21:59 25.01243 55.64841 5552 ft 247 kts 122°
2026-05-07 21:59 25.00346 55.66462 5459 ft 247 kts 122°
2026-05-07 22:00 24.99461 55.68052 5357 ft 246 kts 123°
2026-05-07 22:00 24.98735 55.69349 5291 ft 241 kts 123°
2026-05-07 22:00 24.97878 55.70885 5171 ft 230 kts 123°
2026-05-07 22:00 24.97054 55.72355 5042 ft 221 kts 123°
2026-05-07 22:01 24.96261 55.73776 5007 ft 217 kts 123°
2026-05-07 22:01 24.95482 55.75170 4947 ft 217 kts 123°
2026-05-07 22:01 24.94750 55.76645 4861 ft 218 kts 111°
2026-05-07 22:01 24.94691 55.78290 4782 ft 218 kts 70°
2026-05-07 22:02 24.95581 55.79585 4713 ft 214 kts 32°
2026-05-07 22:02 24.96829 55.80476 4654 ft 214 kts 27°
2026-05-07 22:02 24.98156 55.81239 4583 ft 221 kts 16°
2026-05-07 22:02 24.99658 55.81326 4553 ft 217 kts 340°
2026-05-07 22:03 25.00834 55.80416 4433 ft 209 kts 306°
2026-05-07 22:03 25.01638 55.79088 4298 ft 208 kts 298°
2026-05-07 22:03 25.02371 55.77719 4217 ft 208 kts 298°
2026-05-07 22:03 25.03155 55.76361 4129 ft 211 kts 303°
2026-05-07 22:04 25.03969 55.75016 4071 ft 211 kts 301°
2026-05-07 22:04 25.04761 55.73654 3975 ft 211 kts 300°
2026-05-07 22:04 25.05534 55.72280 3891 ft 210 kts 299°
2026-05-07 22:04 25.06282 55.70902 3815 ft 209 kts 298°
2026-05-07 22:05 25.07012 55.69509 3785 ft 210 kts 297°
2026-05-07 22:05 25.07719 55.68129 3783 ft 209 kts 298°
2026-05-07 22:05 25.08477 55.66735 3796 ft 208 kts 299°
2026-05-07 22:05 25.09241 55.65386 3793 ft 208 kts 300°
2026-05-07 22:06 25.09997 55.64049 3786 ft 208 kts 300°
2026-05-07 22:06 25.10752 55.62691 3788 ft 208 kts 299°
2026-05-07 22:06 25.11503 55.61330 3776 ft 208 kts 299°
2026-05-07 22:06 25.12256 55.59968 3775 ft 204 kts 299°
2026-05-07 22:07 25.12966 55.58687 3747 ft 190 kts 299°
2026-05-07 22:07 25.13644 55.57459 3601 ft 185 kts 299°
2026-05-07 22:07 25.14300 55.56278 3355 ft 173 kts 299°
2026-05-07 22:07 25.14902 55.55188 3113 ft 160 kts 299°
2026-05-07 22:08 25.15459 55.54180 2893 ft 148 kts 299°
2026-05-07 22:08 25.15968 55.53262 2711 ft 136 kts 299°
2026-05-07 22:08 25.16449 55.52390 2549 ft 132 kts 300°
2026-05-07 22:08 25.16928 55.51529 2377 ft 131 kts 300°
2026-05-07 22:09 25.17408 55.50669 2219 ft 131 kts 300°
2026-05-07 22:09 25.17885 55.49810 2059 ft 131 kts 301°
2026-05-07 22:09 25.18361 55.48951 1885 ft 131 kts 300°
2026-05-07 22:09 25.18832 55.48099 1721 ft 130 kts 301°
2026-05-07 22:10 25.19302 55.47249 1574 ft 130 kts 301°
2026-05-07 22:10 25.19771 55.46402 1377 ft 129 kts 301°
2026-05-07 22:10 25.20245 55.45544 1223 ft 131 kts 301°
2026-05-07 22:10 25.20716 55.44697 1056 ft 131 kts 301°
2026-05-07 22:11 25.21194 55.43834 896 ft 132 kts 301°
2026-05-07 22:11 25.21677 55.42966 755 ft 134 kts 301°
2026-05-07 22:11 25.22184 55.42096 625 ft 135 kts 302°
2026-05-07 22:11 25.22676 55.41183 411 ft 136 kts 298°
2026-05-07 22:12 25.23140 55.40289 234 ft 137 kts 301°
2026-05-07 22:12 25.23644 55.39394 53 ft 136 kts 298°
2026-05-07 22:12 25.24108 55.38551 31 ft 112 kts 301°
2026-05-07 22:12 25.24411 55.38009 31 ft 53 kts 301°
2026-05-07 22:13 25.24530 55.37795 29 ft 28 kts 301°
2026-05-07 22:13 25.24602 55.37592 28 ft 29 kts 281°
2026-05-07 22:13 25.24615 55.37376 28 ft 17 kts 271°
2026-05-07 22:13 25.24616 55.37353 28 ft 0 kts 271°
2026-05-07 22:14 25.24616 55.37348 28 ft 4 kts 270°
2026-05-07 22:14 25.24625 55.37279 28 ft 14 kts 285°
2026-05-07 22:14 25.24684 55.37154 28 ft 23 kts 302°
2026-05-07 22:14 25.24775 55.36988 28 ft 24 kts 301°
2026-05-07 22:15 25.24849 55.36826 28 ft 24 kts 286°
2026-05-07 22:15 25.24906 55.36644 28 ft 27 kts 298°
2026-05-07 22:15 25.25006 55.36461 28 ft 29 kts 302°
2026-05-07 22:15 25.25118 55.36264 28 ft 31 kts 302°
2026-05-07 22:16 25.25236 55.36053 28 ft 33 kts 301°
2026-05-07 22:16 25.25362 55.35831 28 ft 35 kts 302°
2026-05-07 22:16 25.25485 55.35611 27 ft 30 kts 302°
2026-05-07 22:16 25.25597 55.35412 27 ft 31 kts 302°
2026-05-07 22:17 25.25710 55.35212 27 ft 28 kts 302°
2026-05-07 22:17 25.25796 55.35051 27 ft 6 kts 288°
2026-05-07 22:17 25.25783 55.35020 27 ft 4 kts 222°
2026-05-07 22:17 25.25750 55.34974 27 ft 13 kts 251°
2026-05-07 22:18 25.25746 55.34964 27 ft 0 kts 246°
2026-05-07 22:18 25.25736 55.34908 27 ft 6 kts 260°
2026-05-07 22:18 25.25728 55.34857 27 ft 5 kts 260°
2026-05-07 22:19 25.25723 55.34829 27 ft 3 kts 260°
2026-05-07 22:19 25.25722 55.34821 27 ft 1 kts 260°
2026-05-07 22:19 25.25721 55.34816 27 ft 0 kts 260°
2026-05-07 22:19 25.25721 55.34815 27 ft 0 kts 260°
2026-05-07 22:20 25.25721 55.34814 27 ft 0 kts 260°